Regional Weather Roundup
Issued by NWS Little Rock, AR

Home | Current Version | Previous Version | Graphics & Text | Print | Product List | Glossary On
Versions: 1 2 3 4 5 6 7 8 9 10 11 12 13 14 15 16 17 18 19 20 21 22 23 24 25 26 27 28 29 30 31 32 33 34 35 36 37 38 39 40 41 42 43 44 45 46 47 48 49 50
000
ASUS44 KLZK 010905
RWRLZK

WEATHER ROUNDUP FOR ARKANSAS
NATIONAL WEATHER SERVICE LITTLE ROCK AR
400 AM CDT WED APR 01 2015

NOTE: "FAIR" INDICATES FEW OR NO CLOUDS BELOW 12,000 FEET WITH NO
SIGNIFICANT WEATHER AND/OR OBSTRUCTIONS TO VISIBILITY.

ARZ001-003-010-029-011000-
NORTHWEST ARKANSAS

CITY           SKY/WX    TMP DP  RH WIND       PRES   REMARKS
FAYETTEVILLE   CLOUDY    52  51  97 S3        29.94S
FORT SMITH     CLOUDY    64  60  87 S3        29.92S
HARRISON       CLOUDY    56  52  86 E5        29.94F
BENTONVILLE    CLOUDY    57  52  82 SE8       29.93F
ROGERS         CLOUDY    57  52  83 SE6       29.94S
SILOAM SPGS    CLOUDY    55  46  71 SE6       29.94S
HIGHFILL       CLOUDY    54  50  86 CALM      29.92F
$$

ARZ004-005-016-011000-
NORTH CENTRAL ARKANSAS

CITY           SKY/WX    TMP DP  RH WIND       PRES   REMARKS
BATESVILLE     PTCLDY    59  55  88 NE5       29.95R
FLIPPIN        MOCLDY    59  50  72 CALM      29.95R
MTN HOME       MOCLDY    57  52  83 E6        29.95F
$$

ARZ040-041-011000-
WEST CENTRAL ARKANSAS

CITY           SKY/WX    TMP DP  RH WIND       PRES   REMARKS
MENA           CLOUDY    70  64  83 SW8       29.96R
MOUNT IDA      CLOUDY    63  61  93 CALM      29.91S FOG
$$

ARZ009-017-025-026-028-011000-
NORTHEAST ARKANSAS

CITY           SKY/WX    TMP DP  RH WIND       PRES   REMARKS
CORNING          N/A     54  54 100 NE7       30.00S
JONESBORO      CLEAR     54  53  97 NE3       29.98R
NEWPORT        CLEAR     58  58 100 NE8       29.97R
BLYTHEVILLE    CLEAR     55  51  86 E9        30.00R
$$

ARZ022-023-033-042-044-011000-
CENTRAL ARKANSAS

CITY           SKY/WX    TMP DP  RH WIND       PRES   REMARKS
LITTLE ROCK    CLOUDY    60  57  89 CALM      29.94S
N LITTLE ROCK    N/A     62  62 100 E3        29.94S
JACKSONVILLE   MOCLDY    58  58  99 CALM      29.93S FOG
SEARCY         FOG       57  57 100 CALM      29.96R VSB 1
HOT SPRINGS    CLOUDY    60  59  96 CALM      29.93F FOG
RUSSELLVILLE   CLOUDY    60  59  96 CALM      29.92S FOG
CLINTON        FOG       54  54 100 CALM      29.96S VSB 1/4
$$

ARZ036-011000-
EAST ARKANSAS

CITY           SKY/WX    TMP DP  RH WIND       PRES   REMARKS
WEST MEMPHIS   MOCLDY    61  60  97 SE6       29.95S
$$

ARZ050-053-066-070-073-011000-
SOUTHWEST ARKANSAS

CITY           SKY/WX    TMP DP  RH WIND       PRES   REMARKS
ARKADELPHIA    FOG       60  60 100 CALM      29.94F VSB 1/2
CAMDEN         MOCLDY    59  57  94 CALM      29.95S FOG
TEXARKANA      PTCLDY    63  60  90 S6        29.95S
EL DORADO      CLEAR     62  59  90 S7        29.96S
DE QUEEN       FOG       57  57 100 CALM      29.93R VSB 1/4
$$

ARZ056-057-069-011000-
SOUTHEAST ARKANSAS

CITY           SKY/WX    TMP DP  RH WIND       PRES   REMARKS
PINE BLUFF     MOCLDY    59  59 100 E5        29.94R
STUTTGART      PTCLDY    61  57  88 SE6       29.94S
MONTICELLO     MOCLDY    61  58  90 S3        29.94S

$$




USA.gov is the U.S. government's official web portal to all federal, state and local government web resources and services.